Joplin, MO

5:25 PM CDT on September 21, 2017 (GMT -0500)
Joplin Regional

Weather History for KJLN - August, 2014

Change the Weather History Date:

Tuesday, August 19, 2014

  Actual Average Record
Temperature  
Mean Temperature 85 °F 80 °F  
Max Temperature 98 °F 91 °F 101 °F (1962)
Min Temperature 72 °F 68 °F 55 °F (1950)
Degree Days  
Heating Degree Days 0 0  
Month to date heating degree days 0 0  
Since 1 June heating degree days 3 5  
Since 1 July heating degree days 1 0  
Cooling Degree Days 20 15  
Month to date cooling degree days 242 296  
Year to date cooling degree days 1088 1267  
Since 1 June cooling degree days 875 1087  
Growing Degree Days 35 (Base 50)    
Moisture  
Dew Point 67 °F    
Average Humidity 61    
Maximum Humidity 87    
Minimum Humidity 35    
Precipitation  
Precipitation 0.00 in 0.11 in 3.13 in (2009)
Month to date precipitation 1.49 1.94  
Year to date precipitation 15.41 29.56  
Sea Level Pressure  
Sea Level Pressure 29.82 in    
Wind  
Wind Speed 11 mph (SW)    
Max Wind Speed 20 mph    
Max Gust Speed 24 mph    
Visibility 10 miles    
Events      
T = Trace of Precipitation, MM = Missing Value Source: NWS Daily Summary

Daily Weather History Graph

Daily Weather History Graph

Search for Another Location

Airport or City:

Trip Planner

Search our weather history database for the weather conditions in past years. The results will help you decide how hot, cold, wet, or windy it might be!

Date:

Astronomy

Aug. 19, 2014 Rise Set
Actual Time 6:37 AM CDT 8:04 PM CDT
Civil Twilight 6:10 AM CDT 8:31 PM CDT
Nautical Twilight 5:37 AM CDT 9:04 PM CDT
Astronomical Twilight 5:03 AM CDT 9:39 PM CDT
Moon 1:32 AM CDT (8/19) 3:59 PM CDT (8/19)
Length of Visible Light 14h 21m
Length of Day
13h 26m
Waning Crescent, 29% of the Moon is Illuminated
Aug 19
Waning Crescent
Aug 25
New
Sep 2
First Quarter
Sep 8
Full
Sep 15
Last Quarter

Hourly Weather History & Observations

Time (CDT) Temp. Heat Index Dew Point Humidity Pressure Visibility Wind Dir Wind Speed Gust Speed Precip Events Conditions
12:53 AM 75.9 °F - 66.9 °F 74% 29.79 in 10.0 mi South 9.2 mph - N/A   Clear
1:53 AM 75.9 °F - 66.9 °F 74% 29.79 in 10.0 mi South 10.4 mph - N/A   Clear
2:53 AM 75.9 °F - 68.0 °F 76% 29.80 in 10.0 mi SSW 10.4 mph - N/A   Clear
3:53 AM 73.0 °F - 68.0 °F 84% 29.81 in 10.0 mi SSW 8.1 mph - N/A   Clear
4:53 AM 73.0 °F - 68.0 °F 84% 29.84 in 10.0 mi West 4.6 mph - N/A   Mostly Cloudy
5:53 AM 73.0 °F - 69.1 °F 87% 29.81 in 10.0 mi South 12.7 mph - N/A   Partly Cloudy
6:53 AM 73.9 °F - 69.1 °F 85% 29.83 in 10.0 mi SW 12.7 mph - N/A   Clear
7:53 AM 75.0 °F - 66.9 °F 76% 29.81 in 10.0 mi SSW 13.8 mph - N/A   Clear
8:53 AM 78.1 °F - 68.0 °F 71% 29.83 in 10.0 mi SW 11.5 mph - N/A   Clear
9:53 AM 81.0 °F 83.0 °F 66.0 °F 60% 29.85 in 10.0 mi WSW 8.1 mph - N/A   Clear
10:53 AM 87.1 °F 89.2 °F 66.0 °F 49% 29.86 in 10.0 mi WSW 11.5 mph - N/A   Clear
11:53 AM 91.0 °F 93.8 °F 66.0 °F 44% 29.85 in 10.0 mi WSW 13.8 mph 19.6 mph N/A   Clear
12:53 PM 91.9 °F 94.5 °F 66.0 °F 42% 29.84 in 10.0 mi Variable 3.5 mph 16.1 mph N/A   Clear
1:53 PM 95.0 °F 97.9 °F 66.0 °F 38% 29.83 in 10.0 mi SW 9.2 mph 18.4 mph N/A   Clear
2:53 PM 97.0 °F 99.3 °F 64.0 °F 34% 29.82 in 10.0 mi WSW 12.7 mph 17.3 mph N/A   Clear
3:53 PM 97.0 °F 99.3 °F 64.0 °F 34% 29.81 in 10.0 mi WSW 13.8 mph - N/A   Clear
4:53 PM 95.0 °F 97.9 °F 66.0 °F 38% 29.80 in 10.0 mi WSW 12.7 mph - N/A   Clear
5:53 PM 93.9 °F 96.1 °F 64.9 °F 38% 29.79 in 10.0 mi SW 13.8 mph - N/A   Clear
6:53 PM 91.9 °F 95.9 °F 68.0 °F 45% 29.79 in 10.0 mi SSW 12.7 mph - N/A   Clear
7:53 PM 86.0 °F 89.4 °F 68.0 °F 55% 29.79 in 10.0 mi South 9.2 mph - N/A   Clear
8:53 PM 82.9 °F 86.5 °F 69.1 °F 63% 29.81 in 10.0 mi South 9.2 mph - N/A   Clear
9:53 PM 81.0 °F 84.4 °F 70.0 °F 69% 29.83 in 10.0 mi South 8.1 mph - N/A   Clear
10:53 PM 81.0 °F 84.4 °F 70.0 °F 69% 29.84 in 10.0 mi South 9.2 mph - N/A   Clear
11:53 PM 81.0 °F 84.4 °F 70.0 °F 69% 29.84 in 10.0 mi SSW 9.2 mph - N/A   Clear